Find STARLINK-37908

NORAD ID: 799501035 Int'l Des: 2026-146M Constellation: starlink operational

現在のビュー

3D地球を読み込み中...

About STARLINK-37908

STARLINK-37908 (NORAD 799501035) is a starlink constellation satellite launched Jun 12, 2026

STARLINK-37908について

説明を読み込み中...

次回通過

Passes for default location (London). Set your location on the main map for personalized predictions.

高度履歴

Loading altitude history...

軌道要素

1 99999C 2026146M 26176.36368056 .00667000 00000-0 102640-3 0 1767
2 99999 97.2856 22.0224 0011165 278.7924 22.6051 16.03823374 13
Epoch: Jun 25, 2026 • Age: 9 hours